Location: Alafon
(8.4500°N, 4.2333°E)
Time: 06:51:17
(UTC+00:00)

Vanguard 2 - Pass Details

Date: 08 August 2021
Orbit: 553 x 2937 km, 32.9° (Epoch: 24 September)

Event Time Altitude Azimuth Distance (km) Brightness Sun altitude
Rises 21:52:16 0° 230° (SW) 5,859 12.1 -52.3°
Reaches altitude 10° 21:56:45 10° 228° (SW) 4,488 11.4 -53.1°
Enters shadow 21:57:04 11° 228° (SW) 4,390 11.4 -53.2°
Maximum altitude 22:08:03 69° 148° (SSE) 1,424 - -55.2°
Drops below altitude 10° 22:14:37 10° 65° (ENE) 2,700 - -56.3°
Sets 22:16:42 0° 62° (ENE) 3,433 - -56.7°
